This is the latest recevied weather packets stored in our database for station/object KD0SBN. If no packets are shown the sender has not sent any weather packets the latest 10 day(s).
| Time | Temp. | Humidity | Pressure | Rain* | Wind** | Luminosity | Snow |
|---|---|---|---|---|---|---|---|
| 1777815819 | 17.78° C | 32% | 1017.5 hPa | 0 mm | - | - | - |
| 1777815516 | 17.78° C | 33% | 1017.3 hPa | 0 mm | - | - | - |
| 1777815213 | 17.78° C | 32% | 1017.1 hPa | 0 mm | - | - | - |
| 1777814910 | 17.22° C | 34% | 1017.3 hPa | 0 mm | - | - | - |
| 1777814606 | 16.67° C | 34% | 1017.3 hPa | 0 mm | - | - | - |
| 1777814304 | 16.11° C | 36% | 1017.2 hPa | 0 mm | - | - | - |
| 1777814000 | 15° C | 36% | 1017.2 hPa | 0 mm | - | - | - |
| 1777813697 | 14.44° C | 39% | 1017 hPa | 0 mm | - | - | - |
| 1777813395 | 14.44° C | 39% | 1017.2 hPa | 0 mm | - | - | - |
| 1777813092 | 14.44° C | 38% | 1017.1 hPa | 0 mm | - | - | - |
| 1777812790 | 13.89° C | 38% | 1016.9 hPa | 0 mm | - | - | - |
| 1777812485 | 13.89° C | 37% | 1016.9 hPa | 0 mm | - | - | - |
| 1777812184 | 13.89° C | 36% | 1016.6 hPa | 0 mm | - | - | - |
| 1777811882 | 13.89° C | 36% | 1016.6 hPa | 0 mm | - | - | - |
| 1777811580 | 13.89° C | 37% | 1016.8 hPa | 0 mm | - | - | - |
| 1777811275 | 13.33° C | 38% | 1016.6 hPa | 0 mm | - | - | - |
| 1777810973 | 13.33° C | 38% | 1016.5 hPa | 0 mm | - | - | - |
| 1777810669 | 12.78° C | 38% | 1016.6 hPa | 0 mm | - | - | - |
| 1777810367 | 12.78° C | 39% | 1016.5 hPa | 0 mm | - | - | - |
| 1777810062 | 12.22° C | 39% | 1016.5 hPa | 0 mm | - | - | - |
| 1777809760 | 12.78° C | 40% | 1016.6 hPa | 0 mm | - | - | - |
| 1777809457 | 12.78° C | 39% | 1016.5 hPa | 0 mm | - | - | - |
| 1777809155 | 12.78° C | 39% | 1016.4 hPa | 0 mm | - | - | - |
| 1777808853 | 12.78° C | 39% | 1016.3 hPa | 0 mm | - | - | - |
| 1777808549 | 12.22° C | 40% | 1016.5 hPa | 0 mm | - | - | - |
* Rain latest hour (hover to see other rain measurements)
** Current wind speed in m/s (hover to see current wind gust speed)